{"data":{"norad_id":53081,"intl_designator":"2022-077AQ","name":"STARLINK-4326","alt_names":[],"object_type":"PAYLOAD","status":"ACTIVE","operator":null,"country":"US","launch_date":"2022-07-11","launch_site_code":"AFWTR","launch_vehicle":null,"mission":null,"orbit_class":"UNKNOWN","rcs_meters":null,"size_class":null,"mass_kg":null,"dimensions":null,"purposes":["comms"],"wikipedia_slug":null,"has_3d_model":false,"image_url":null,"decayed_at":null,"tle_current":{"epoch":"2026-05-25T01:47:10.802112Z","epoch_age_seconds":62604,"freshness":"FRESH","line1":"1 53081U 22077AQ  26145.07443058 -.00001407  00000+0 -93459-4 0  9991","line2":"2 53081  97.4480 324.9839 0001479  83.6483 276.4913 15.05657569212402","mean_motion":15.05657569,"eccentricity":0.0001479,"inclination_deg":97.448,"raan_deg":324.9839,"arg_perigee_deg":83.6483,"mean_anomaly_deg":276.4913,"bstar":-9.3459e-5,"rev_number":21240,"period_min":95.639276130787,"perigee_km":548.46334125109,"apogee_km":550.51253270745,"semimajor_km":6927.6249369793,"source":"CELESTRAK","updated_at":"2026-05-25T13:38:17.313873Z"}}}